Regional Weather Roundup
Issued by NWS

Home | Current Version | Previous Version | Graphics & Text | Print | Product List | Glossary On
Versions: 1 2 3 4 5 6 7 8 9 10 11 12 13 14 15 16 17 18 19 20 21 22 23 24 25 26 27 28 29 30 31 32 33 34 35 36 37 38 39 40 41 42 43 44 45 46 47 48 49 50
000
ASUS43 KDTX 250110
RWRMI
MICHIGAN HOURLY REGIONAL WEATHER ROUNDUP
NATIONAL WEATHER SERVICE DETROIT/PONTIAC MI
ISSUED BY NATIONAL WEATHER SERVICE GRAND RAPIDS MI
900 PM EDT WED MAY 24 2017

NOTE: "FAIR" INDICATES FEW OR NO CLOUDS BELOW 12,000 FEET WITH NO
SIGNIFICANT WEATHER AND/OR OBSTRUCTION TO VISIBILITY.

MIZ047>049-052>055-059>063-066>070-074>076-081>083-250200-
SOUTHEAST LOWER MICHIGAN

CITY           SKY/WX    TMP DP  RH WIND       PRES   REMARKS
ADRIAN         CLOUDY    58  57  97 E12G21    29.49F FOG
ALMA           CLOUDY    58  54  85 NE9G20    29.58S
ANN ARBOR      LGT RAIN  59  58  96 NE8       29.51F FOG
BAD AXE        LGT RAIN  54  51  92 E5        29.62S
DETROIT CITY   CLOUDY    59  58  96 E10       29.53F
DETROIT        LGT RAIN  59  58  96 NE14G21   29.52F FOG
FLINT          CLOUDY    60  57  89 E13       29.56S
GROSSE ILE     CLOUDY    58  57  95 NE10G16   29.49F
HILLSDALE      HVY RAIN  57  55  94 NE8       29.49F
HOWELL         DRIZZLE   59  56  92 E8        29.53S

CITY           SKY/WX    TMP DP  RH WIND       PRES   REMARKS
JACKSON        LGT RAIN  58  57  97 N9        29.51F FOG
LANSING        LGT RAIN  60  55  83 NE7       29.55S
MASON          HVY RAIN  58  57  97 NE8       29.54S
MONROE         CLOUDY    58  57  96 NE8       29.48F
MT. CLEMENS    RAIN      60  60 100 E10       29.54R FOG
PONTIAC        LGT RAIN  59  56  89 E13G18    29.53S
PORT HOPE        N/A     54  49  83 NE15      29.60F
PORT HURON     CLOUDY    57  54  88 NE9       29.57S FOG
TRI CITIES     LGT RAIN  55  52  89 NE17      29.60S
YPSILANTI      LGT RAIN  60  59  96 NE14      29.51F FOG
$$
MIZ043>046-050>051-056>058-064>065-071>073-077>080-250200-
SOUTHWEST LOWER MICHIGAN

CITY           SKY/WX    TMP DP  RH WIND       PRES   REMARKS
BATTLE CREEK   LGT RAIN  60  58  92 N10       29.53F FOG
BENTON HARBOR  CLOUDY    60  57  89 CALM      29.52S
BIG RAPIDS     CLOUDY    62  51  66 NE9       29.59S
COLDWATER      RAIN      58  58 100 N10       29.49F
HOLLAND        CLOUDY    61  57  87 NE6       29.55S FOG
GRAND RAPIDS   CLOUDY    60  58  92 NE9       29.55S
KALAMAZOO      LGT RAIN  61  57  87 N8        29.52F FOG
MARSHALL       RAIN      59  58  98 CALM      29.52S
MOUNT PLEASANT CLOUDY    60  50  69 NE8       29.59S
MUSKEGON       CLOUDY    65  54  67 NE14      29.56S
STURGIS        LGT RAIN  58  56  96 N9        29.49F
$$
MIZ016>042-250200-
NORTHERN LOWER MICHIGAN

CITY           SKY/WX    TMP DP  RH WIND       PRES   REMARKS
ALPENA         CLOUDY    58  52  80 NE9       29.69R
BEAVER ISLAND  CLOUDY    55  51  86 NE3       29.71F
BELLAIRE       CLOUDY    58  51  76 N7        29.66F
CADILLAC       CLOUDY    60  50  69 NE8       29.63S
CHARLEVOIX     CLOUDY    56  51  83 NE6       29.72S
GAYLORD        CLOUDY    58  49  72 NE10      29.67F
HOUGHTON LAKE  MOCLDY    58  49  72 NE10      29.64S
MANISTEE       CLOUDY    60  53  77 N5        29.61S
OSCODA         CLOUDY    56  48  74 NE15      29.64F
PELLSTON       CLOUDY    56  50  80 NE5       29.71S
TRAVERSE CITY  CLOUDY    55  50  83 VRB7      29.64S
LUDINGTON      CLOUDY    59  55  85 NE6       29.59S
$$
MIZ007>008-015-250200-
EASTERN UPPER MICHIGAN

CITY           SKY/WX    TMP DP  RH WIND       PRES   REMARKS
KINROSS        MOCLDY    57  51  80 N7        29.73S
MACKINAC ISLAN CLOUDY    55  55 100 NE9       29.70F
NEWBERRY       CLOUDY    55  51  87 NE5       29.74R
S. S. MARIE    CLOUDY    59  50  72 NE5       29.72F
$$
MIZ004>006-011>014-085-250200-
CENTRAL UPPER MICHIGAN

CITY           SKY/WX    TMP DP  RH WIND       PRES   REMARKS
MANISTIQUE     LGT RAIN  56  50  80 NE5       29.72S
ESCANABA       CLOUDY    54  48  80 N6        29.72S
MENOMINEE      CLOUDY    51  49  92 NE6       29.72R
SAWYER-GWINN   MOCLDY    48  43  81 N9        29.75F
$$
MIZ001>003-009>011-084-250200-
WESTERN UPPER MICHIGAN

CITY           SKY/WX    TMP DP  RH WIND       PRES   REMARKS
IRON MOUNTAIN  CLOUDY    53  45  74 NE7       29.72S
HOUGHTON       CLEAR     49  42  77 E3        29.76S
COPPER HARBOR    N/A     48  40  73 CALM      29.77R
IRONWOOD       CLEAR     52  44  74 N6        29.75S
$$

ABBREVIATIONS USED IN REMARKS
   TC - TEMPERATURE IN CELSIUS
  WCI - WIND CHILL INDEX
   HX - HEAT INDEX
  VSB - VISIBILITY





USA.gov is the U.S. government's official web portal to all federal, state and local government web resources and services.